Regional Weather Roundup
Issued by NWS

Home | Current Version | Previous Version | Graphics & Text | Print | Product List | Glossary On
Versions: 1 2 3 4 5 6 7 8 9 10 11 12 13 14 15 16 17 18 19 20 21 22 23 24 25 26 27 28 29 30 31 32 33 34 35 36 37 38 39 40 41 42 43 44 45 46 47 48 49 50
000
ASUS43 KDMX 300008
RWRIA

WEATHER ROUNDUP FOR IOWA
NATIONAL WEATHER SERVICE DES MOINES IA
700 PM CDT SUN MAY 29 2016

NOTE: "FAIR" INDICATES FEW OR NO CLOUDS BELOW 12,000 FEET WITH NO
SIGNIFICANT WEATHER AND/OR OBSTRUCTIONS TO VISIBILITY.

* - THESE STATIONS ARE NOT NWS STATIONS...THUS NOT UNDER NWS
QUALITY CONTROL.  THEY ALSO DO NOT REPORT WEATHER SUCH
AS PRECIPITATION OR FOG.

IAZ001>003-012>014-020>022-031>034-043>046-300100-
   NORTHWEST IOWA

CITY           SKY/WX    TMP DP  RH WIND       PRES   REMARKS
CARROLL *      SUNNY     82  54  36 W8        29.99S HX  81
CHEROKEE *     SUNNY     77  55  45 NW5       29.99F
DENISON *      SUNNY     81  55  41 N6        29.97F HX  80
LE MARS *      SUNNY     79  54  41 CALM      30.00S
ORANGE CITY *  SUNNY     77  52  41 CALM      30.00F
SHELDON *      SUNNY     77  46  33 NW7       29.99F
SIOUX CITY     SUNNY     82  57  42 NE7       29.98F HX  82
6HR MIN TEMP:  78; 6HR MAX TEMP:  84;

SPENCER        SUNNY     76  49  38 NW7       30.00F
6HR MIN TEMP:  76; 6HR MAX TEMP:  80;

STORM LAKE *   SUNNY     79  55  44 NW10      30.01S
$$

IAZ055>058-069>071-079>083-090>094-300100-
   SOUTHWEST IOWA

CITY           SKY/WX    TMP DP  RH WIND       PRES   REMARKS
ATLANTIC *     SUNNY     82  55  39 SW6       29.99F HX  82
AUDUBON *        N/A     81  54  39 W5        30.01F HX  80
CLARINDA *       N/A     84  63  48 MISG      30.00F HX  85
COUNCIL BLFS * SUNNY     82  59  44 CALM      29.99F HX  82
CRESTON *      SUNNY     81  57  44 W7        30.02F HX  81
HARLAN  *      SUNNY     82  52  34 S3        30.03S HX  81
LAMONI           N/A     81  63  54 SW9       30.01F HX  82
6HR MIN TEMP:  76; 6HR MAX TEMP:  82;

RED OAK *      SUNNY     84  57  39 CALM      29.99F HX  83
SHENANDOAH *   SUNNY     86  59  39 W6        29.99S HX  85
$$

IAZ047>049-059>061-072>074-084-300100-
   CENTRAL IOWA

CITY           SKY/WX    TMP DP  RH WIND       PRES   REMARKS
AMES           SUNNY     82  56  40 W8        29.98F HX  82
6HR MIN TEMP:  77; 6HR MAX TEMP:  83;

ANKENY *       SUNNY     81  55  41 SW10      29.99S HX  80
BOONE *        SUNNY     81  54  39 W8        29.98F HX  80
CHARITON *     SUNNY     81  61  50 CALM      30.01F HX  81
DES MOINES     MOSUNNY   82  52  35 W6        29.99F HX  81
6HR MIN TEMP:  78; 6HR MAX TEMP:  84;

GRINNELL*      SUNNY     79  55  44 SW10      30.01S
KNOXVILLE *    SUNNY     81  55  41 SW7       30.00S HX  80
MARSHALLTOWN   SUNNY     79  55  43 W12       29.98F
6HR MIN TEMP:  75; 6HR MAX TEMP:  81;

NEWTON *       SUNNY     79  57  47 SW8       30.00S HX  80
PELLA *        SUNNY     82  56  41 CALM      30.01F HX  81
PERRY *          N/A     81  54  39 SW6       29.99F HX  80
$$

IAZ004>006-015-016-023>025-035-036-300100-
   NORTH CENTRAL IOWA

CITY           SKY/WX    TMP DP  RH WIND       PRES   REMARKS
ALGONA *       SUNNY     79  50  36 NW16      29.99F
CLARION *      SUNNY     79  59  50 NW13      29.98F HX  80
ESTHERVILLE    SUNNY     74  52  46 W16       29.99F
6HR MIN TEMP:  66; 6HR MAX TEMP:  77; 6HR PCP:  0.08;

FORT DODGE *   MOSUNNY   81  54  39 W9G17     29.99S HX  80
MASON CITY     SUNNY     75  57  53 W13       29.99F
6HR MIN TEMP:  65; 6HR MAX TEMP:  78; 6HR PCP:  0.25;

FOREST CITY *  SUNNY     73  55  53 W9        29.98F
WEBSTER CITY * SUNNY     82  52  34 W14       29.96S HX  81
IOWA FALLS *   PTSUNNY   79  55  44 W8        29.99F
$$

IAZ007>011-017>019-026>030-037>042-050>054-066-300100-
   NORTHEAST IOWA

CITY           SKY/WX    TMP DP  RH WIND       PRES   REMARKS
CEDAR RAPIDS   MOSUNNY   79  59  50 W9        29.99F HX  80
6HR MIN TEMP:  76; 6HR MAX TEMP:  81;

CHARLES CITY * SUNNY     77  57  50 W9G16     29.98F
CLINTON *      PTSUNNY   80  58  46 W13       30.00S HX  80
DECORAH *      SUNNY     75  59  57 W10       29.96F
DUBUQUE        CLOUDY    75  53  46 NW13      29.99F
6HR MIN TEMP:  73; 6HR MAX TEMP:  78;

MONTICELLO *   MOSUNNY   77  59  53 NW7G14    29.98S
OELWEIN *      SUNNY     77  55  47 NW12      29.99F
WATERLOO       CLOUDY    77  58  51 CALM      29.96F
6HR MIN TEMP:  75; 6HR MAX TEMP:  82;

$$

IAZ064-065-067-068-078-300100-
   EAST CENTRAL IOWA

CITY           SKY/WX    TMP DP  RH WIND       PRES   REMARKS
DAVENPORT      SUNNY     80  54  40 W12       30.00F HX  80
6HR MIN TEMP:  76; 6HR MAX TEMP:  81;

IOWA CITY      MOSUNNY   80  57  45 W10       30.00F HX  80
6HR MIN TEMP:  77; 6HR MAX TEMP:  81;

MT. PLEASANT * SUNNY     83  57  41 W5        30.02S HX  83
MUSCATINE *    SUNNY     82  55  39 W9        30.01S HX  82
QUAD CITIES    SUNNY     81  57  43 W7        29.99F HX  81
6HR MIN TEMP:  78; 6HR MAX TEMP:  83;

$$

IAZ062-063-075>077-085>089-095>099-300100-
   SOUTHEAST IOWA

CITY           SKY/WX    TMP DP  RH WIND       PRES   REMARKS
BURLINGTON     SUNNY     80  57  45 W5        30.02S HX  80
6HR MIN TEMP:  78; 6HR MAX TEMP:  82;

FAIRFIELD *      N/A    N/A N/A N/A MISG        N/A
FORT MADISON * SUNNY     81  55  41 W3        30.03F HX  80
KEOKUK *       SUNNY     81  57  44 W3        30.02S HX  81
OSKALOOSA *      N/A     81  53  37 W6        30.02S HX  80
OTTUMWA        SUNNY     81  56  42 W6        30.00F HX  81
6HR MIN TEMP:  77; 6HR MAX TEMP:  81;

WASHINGTON *   SUNNY     81 -31   1 W6        30.02S
$$

ABBREVIATIONS USED IN REMARKS
   TC - TEMPERATURES IN CELSIUS
  WCI - WIND CHILL INDEX
   HX - HEAT INDEX
  VSB - VISIBILITY
$$





USA.gov is the U.S. government's official web portal to all federal, state and local government web resources and services.